This demonstration page uses our WeatherBlox Daily Observations layout. Learn more.

Left ArrowRight Arrow

Hourly Observations for December 16, 2016

Temp ( °F °C ) Dew Point ( °F °C ) Humidity (%) Winds ( mph kmh ) Pressure ( in mb ) Visibility ( mi km ) Precip ( " mm )
12:51 am 00:51 Clear 48 8.9 31 -0.6 52 52 E 6 9 29.91 1013 10 16 0.00 0.00
1:51 am 01:51 Clear 48 8.9 32 0 54 54 SSE 6 9 29.89 1012 10 16 0.00 0.00
2:51 am 02:51 Mostly Clear 51 10.6 31 -0.6 46 46 ESE 3 6 29.89 1012 10 16 0.00 0.00
3:51 am 03:51 Cloudy 54 12.2 33 0.6 45 45 Calm 29.87 1011 10 16 0.00 0.00
4:51 am 04:51 Cloudy with Light Rain 49 9.4 35 1.7 59 59 NW 14 22 29.87 1011 10 16 0.00 0.03
5:51 am 05:51 Cloudy 54 12.2 45 7.2 72 72 NW 7 11 29.89 1012 10 16 0.00 0.03
6:51 am 06:51 Cloudy 52 11.1 44 6.7 75 75 E 7 11 29.91 1013 10 16 0.01 0.25
7:51 am 07:51 Cloudy 50 10 45 7.2 83 83 SE 3 6 29.92 1013 10 16 0.02 0.51
8:51 am 08:51 Cloudy 51 10.6 47 8.3 86 86 E 3 6 29.91 1013 10 16 0.00 0.00
9:51 am 09:51 Mostly Sunny 60 15.6 48 8.9 65 65 E 8 13 29.89 1012 10 16 0.00 0.00
10:51 am 10:51 Mostly Cloudy 63 17.2 47 8.3 56 56 E 8 13 29.86 1011 10 16 0.00 0.00
11:51 am 11:51 Sunny 69 20.6 41 5 36 36 VRB 6 9 29.83 1010 10 16 0.00 0.00
12:51 pm 12:51 Sunny 70 21.1 43 6.1 38 38 WNW 10 17 29.78 1008 10 16 0.00 0.00
1:51 pm 13:51 Mostly Sunny 71 21.7 42 5.6 35 35 WNW 13 20 29.74 1007 10 16 0.00 0.00
2:51 pm 14:51 Sunny 68 20 40 4.4 36 36 NW 12 19 29.72 1006 10 16 0.00 0.00
3:51 pm 15:51 Mostly Sunny 70 21.1 40 4.4 34 34 NW 8 13 29.70 1006 10 16 0.00 0.00
4:51 pm 16:51 Mostly Sunny 67 19.4 40 4.4 37 37 NW 16 26 29.70 1006 10 16 0.00 0.00
5:51 pm 17:51 Partly Cloudy 63 17.2 40 4.4 43 43 NW 6 9 29.69 1006 10 16 0.00 0.00
6:51 pm 18:51 Mostly Cloudy 60 15.6 40 4.4 47 47 W 6 9 29.70 1006 10 16 0.00 0.00
7:51 pm 19:51 Mostly Cloudy 58 14.4 40 4.4 51 51 WNW 3 6 29.70 1006 10 16 0.00 0.00
8:51 pm 20:51 Partly Cloudy 60 15.6 39 3.9 46 46 N 3 6 29.67 1005 10 16 0.00 0.00
9:51 pm 21:51 Mostly Cloudy 63 17.2 38 3.3 40 40 NW 9 15 29.65 1004 10 16 0.00 0.00
10:51 pm 22:51 Mostly Cloudy 62 16.7 38 3.3 41 41 WSW 5 7 29.63 1003 10 16 0.00 0.00
11:51 pm 23:51 Mostly Cloudy 63 17.2 39 3.9 41 41 SW 7 11 29.62 1003 10 16 0.00 0.00

Powered by AerisWeather